Location: Unspecified
(52.4292°N, 19.3359°E)
Time: 00:55:51
(UTC+02:00)

SR - Pass Details

Date: 27 May 2024
Orbit: 580 x 858 km, 66.7° (Epoch: 12 June)

Event Time Altitude Azimuth Distance (km) Brightness Sun altitude
Rises 00:15:08 0° 321° (NW) 2,930 ? -16.0°
Reaches altitude 10° 00:17:42 10° 332° (NNW) 1,983 ? -16.1°
Maximum altitude 00:21:37 30° 35° (NE) 1,084 ? -16.1°
Drops below altitude 10° 00:25:23 10° 97° (E) 1,906 ? -16.2°
Enters shadow 00:27:46 - 108° (ESE) 2,785 ? -16.2°
Sets 00:27:48 0° 109° (ESE) 2,796 - -16.2°
